This demonstration page uses our WeatherBlox Daily Observations layout. Learn more.

36.17497, -115.13722

Hourly Observations for February 18, 2018

Temp ( °F °C ) Dew Point ( °F °C ) Humidity (%) Winds ( mph kmh ) Pressure ( in mb ) Visibility ( mi km ) Precip ( " mm )
12:53 am 00:53 Clear 45 7.2 21 -6.1 39 39 NNW 6 9 29.97 1015 10 16.0934 0 0
1:53 am 01:53 Clear 47 8.3 20 -6.7 34 34 NNW 5 7 29.94 1014 10 16.0934 0 0
2:53 am 02:53 Clear 44 6.7 20 -6.7 38 38 N 7 11 29.93 1014 10 16.0934 0 0
3:53 am 03:53 Clear 44 6.7 19 -7.2 37 37 NW 5 7 29.91 1013 10 16.0934 0 0
4:53 am 04:53 Clear 46 7.8 19 -7.2 34 34 VRB 3 6 29.9 1012 10 16.0934 0 0
5:53 am 05:53 Clear 43 6.1 21 -6.1 42 42 Calm 29.88 1012 10 16.0934 0 0
6:53 am 06:53 Sunny 43 6.1 22 -5.6 43 43 NW 8 13 29.87 1012 10 16.0934 0 0
7:53 am 07:53 Sunny 48 8.9 24 -4.4 39 39 Calm 29.87 1011 10 16.0934 0 0
8:53 am 08:53 Sunny 54 12.2 24 -4.4 31 31 N 5 7 29.85 1011 10 16.0934 0 0
9:53 am 09:53 Sunny 60 15.6 20 -6.7 21 21 ESE 10 17 29.81 1009 10 16.0934 0 0
10:53 am 10:53 Sunny 67 19.4 19 -7.2 16 16 SSW 21 33 29.77 1008 10 16.0934 0 0
11:41 am 11:41 Sunny 68 20 18 -7.8 15 15 S 23 37 29.62 1003 10 16.0934 0 0
11:53 am 11:53 Sunny 69 20.6 18 -7.8 14 14 SW 17 28 29.72 1006 10 16.0934 0 0
12:53 pm 12:53 Sunny 70 21.1 19 -7.2 14 14 S 21 33 29.66 1005 10 16.0934 0 0
1:53 pm 13:53 Sunny 69 20.6 19 -7.2 15 15 SW 20 31 29.64 1004 10 16.0934 0 0
2:53 pm 14:53 Sunny 71 21.7 22 -5.6 16 16 WSW 29 46 29.6 1003 10 16.0934 0 0
3:53 pm 15:53 Sunny 70 21.1 22 -5.6 16 16 SW 16 26 29.58 1002 10 16.0934 0 0
4:53 pm 16:53 Sunny 69 20.6 20 -6.7 15 15 SSW 21 33 29.55 1001 10 16.0934 0 0
5:53 pm 17:53 Clear 65 18.3 22 -5.6 19 19 S 13 20 29.54 1000 10 16.0934 0 0
6:53 pm 18:53 Clear 65 18.3 21 -6.1 19 19 WSW 13 20 29.52 1000 10 16.0934 0 0
7:53 pm 19:53 Clear 63 17.2 19 -7.2 18 18 WSW 14 22 29.54 1000 10 16.0934 0 0
8:53 pm 20:53 Clear 62 16.7 18 -7.8 18 18 WSW 20 31 29.52 1000 10 16.0934 0 0
9:53 pm 21:53 Clear 59 15 22 -5.6 24 24 SSW 14 22 29.51 999 10 16.0934 0 0
10:51 pm 22:51 Clear 59 15 19 -7 21 21 SSW 10 17 29.47 998 10 16.0934 0 0
10:53 pm 22:53 Clear 58 14.4 21 -6.1 24 24 WSW 15 24 29.51 999 10 16.0934 0 0
11:53 pm 23:53 Clear 56 13.3 24 -4.4 29 29 WSW 15 24 29.51 999 10 16.0934 0 0

Powered by AerisWeather